Home   Weather   Linares   Past weeks

Flag for Spain Past Weather in Linares, Spain — Yesterday and Last 2 Weeks

Now
79 °F

Passing clouds.


Feels Like: 79 °F
Forecast: 50 / 77 °F
Wind: 2 mph from North

Location: Granada / Aeropuerto

Current Time: Apr 23, 2017 at 4:15:36 pm

Latest Report: Apr 23, 2017 at 3:30 pm


Visibility: N/A

Pressure: 29.98 "Hg

Humidity: 32%

Dew Point: 46 °F

Location of LinaresLocation

Past Weather in Linares — Graph

°F

Linares Temperature Yesterday

Maximum temperature yesterday: 77 °F (at 4:00 pm)
Minimum temperature yesterday: 45 °F (at 7:30 am)
Average temperature yesterday: 62 °F

High & Low Weather Summary for the Past Weeks

 TemperatureHumidityPressure
High90 °F (Apr 18, 4:00 pm)93% (Apr 9, 5:30 am)30.24 "Hg (Apr 9, 5:30 am)
Low39 °F (Apr 9, 7:30 am)12% (Apr 12, 5:30 pm)29.86 "Hg (Apr 18, 5:00 pm)
Average64 °F49%30.10 "Hg
* Reported Apr 8 3:00 pm — Apr 23 3:00 pm, Linares, Weather by CustomWeather, © 2017

Note: Actual official high and low records may vary slightly from our data, if they occured in-between our weather recording intervals... More about our weather records

Advertising

Linares Weather History for the Previous 24 Hours

Scroll right to see more
 ConditionsComfort  
Time TempWeatherWind HumidityBarometerVisibility
3:00 pm
Sun, Apr 23
79 °FPassing clouds.5 mph32%30.01 "HgN/A
2:30 pm77 °FPassing clouds.7 mph36%30.01 "HgN/A
2:00 pm77 °FPassing clouds.5 mph34%30.01 "HgN/A
1:30 pm77 °FPassing clouds.6 mph36%30.04 "HgN/A
1:00 pm75 °FPassing clouds.12 mph36%30.04 "HgN/A
12:30 pm73 °FPassing clouds.6 mph41%30.04 "HgN/A
12:00 pm70 °FPassing clouds.2 mph50%30.07 "HgN/A
11:30 am68 °FPassing clouds.1 mph53%30.07 "HgN/A
11:00 am66 °FPassing clouds.No wind56%30.07 "HgN/A
10:30 am63 °FScattered clouds.1 mph64%30.07 "HgN/A
9:30 am59 °FPartly sunny.No wind72%30.07 "HgN/A
9:00 am57 °FBroken clouds.No wind77%30.07 "HgN/A
8:30 am54 °FScattered clouds.No wind88%30.07 "HgN/A
8:00 am54 °FPassing clouds.2 mph82%30.07 "HgN/A
7:30 am52 °FPassing clouds.No wind88%30.04 "HgN/A
7:00 am54 °FPassing clouds.1 mph82%30.04 "HgN/A
6:30 am55 °FPassing clouds.1 mph77%30.04 "HgN/A
6:00 am55 °FPassing clouds.No wind82%30.04 "HgN/A
5:30 am55 °FMostly cloudy.1 mph77%30.07 "HgN/A
4:30 am55 °FPassing clouds.5 mph82%30.07 "HgN/A
4:00 am55 °FCool.3 mph77%30.07 "HgN/A
3:30 am57 °FCool.No wind72%30.07 "HgN/A
3:00 am57 °FCool.7 mph72%30.07 "HgN/A
2:30 am59 °FCool.3 mph68%30.07 "HgN/A
2:00 am57 °FCool.1 mph72%30.07 "HgN/A
1:30 am59 °FCool.2 mph68%30.07 "HgN/A
1:00 am61 °FCool.3 mph63%30.09 "HgN/A
12:30 am61 °FCool.1 mph63%30.09 "HgN/A
12:00 am63 °FPassing clouds.1 mph64%30.09 "HgN/A
11:30 pm
Sat, Apr 22
63 °FPassing clouds.2 mph59%30.07 "HgN/A
11:00 pm64 °FPassing clouds.5 mph60%30.07 "HgN/A
10:30 pm64 °FPassing clouds.2 mph60%30.07 "HgN/A
10:00 pm66 °FPassing clouds.13 mph52%30.04 "HgN/A
9:30 pm66 °FPassing clouds.13 mph52%30.04 "HgN/A
8:30 pm70 °FPassing clouds.14 mph46%30.04 "HgN/A
8:00 pm72 °FPassing clouds.13 mph44%30.04 "HgN/A
7:30 pm73 °FPassing clouds.12 mph38%30.04 "HgN/A
7:00 pm73 °FPassing clouds.9 mph41%30.04 "HgN/A
6:30 pm75 °FPassing clouds.10 mph36%30.01 "HgN/A
6:00 pm75 °FPassing clouds.16 mph39%30.04 "HgN/A
5:30 pm75 °FScattered clouds.14 mph36%30.04 "HgN/A
5:00 pm75 °FPassing clouds.7 mph34%30.04 "HgN/A
4:30 pm77 °FPassing clouds.9 mph32%30.04 "HgN/A
4:00 pm77 °FPassing clouds.5 mph26%30.07 "HgN/A
Weather by CustomWeather, © 2017

See weather overviewHow to use our weather pages